Погода в Ереване

Погода в Ереване : погода сейчас, прогноз погоды и архив. Всё, что Вы хотите узнать о погоде в Ереване!

Поиск расширенной информации на нашем сайте:

Другие новости

Новости СМИ2

Главная страница сайта

Новости сайта

02.10.2013

Напоминаем, что на нашем новом сайте вы можете получить высокодетализированные прогнозы погоды по пунктам России, СНГ и мира (включающие важные для авиации метеовеличины, такие как направление и скорость ветра, видимость, явления погоды, количество и форма облачности, нижняя и верхняя граница облачности), а также ознакомиться с разнообразными материалами по авиационной метеорологии и подборкой полезных ссылок на эту тему.

Сайт Метеоцентр.Азия посвящён разработке технологий оптимизации авиаметеорологического обслуживания, включая проектирование и перспективное создание нескольких автоматизированных авиаметеорологических систем:
- система выпуска высокодетальных прогностических карт явлений погоды для нижнего воздушного пространства по России и ближнему зарубежью;
- система верификации прогнозов TAF (выпускаемых синоптиками официальных АМСГ РФ и ближнего зарубежья) и AUTOTAF (выпускаемых сайтом Метеоцентр.Азия) - выявление ошибок, онлайн-сопоставление с фактической погодой METAR, автоматическое внесение коррективов в прогнозы при резком отклонении фактической погоды от прогноза, подсчёт оправдываемости прогнозов по элементам и в целом;
- система обработки, анализа и отображения авиаметеорологической информации для применения провайдерами метеорологической информации.

Рекомендуем: Порекомендовали элькарнитин цена и я похудела на 10 кг!

Погода в Ереване - сегодня

Время (UTC), дата Ветер
(°,м/с) 
Видим.   Явления Облачность Т
(°С)
Тd
(°С)
f(%) Тe
(°С)
Pmin
(гПа)
dP
(гПа)
Po
(мм)
O2
(г/м3)
Тmin Tmax R s Состояние
почвы
06 18.02.17 240 (ЮЗ) 2000 м  дымка  ясно 
-17.3 -17.3 100 -17  1044.4  2.3  700  302  -18.7         
09 18.02.17 160 (Ю) 4000 м  дымка  ясно 
-7.8 -11.9 72 -8  1041  1.7  700  291           
12 18.02.17 240 (ЮЗ) 10 км    ясно 
-4.9 -12.7 54 -4  1039.4  -0.3  700  288           
15 18.02.17 270 (З) 10 км    ясно 
-8.8 -12.6 74 -9  1041.3  0.2  700  293           
18 18.02.17 360 (С) 4000 м  дымка  ясно 
-13.2 -14.9 87 -13  1044.7  1.1  701  298  -4.7         
21 18.02.17 340 (С) 2000 м  дымка  ясно 
-15.3 -16.6 90 -15  1045.6  0.3  701  301           
00 19.02.17 тихо ()   2000 м  дымка  ясно 
-17.6 -17.5 100 -18  1047.1  0.3  701  303           
03 19.02.17 тихо ()   2000 м  дымка  ясно 
-19.7 -19.7 100 -20  1048.9  0.7  702  306        23   
06 19.02.17 тихо ()   0050 м  туман  ясно 
-17 -17 100 -17  1049.4  1.1  703  303  -20.6         
09 19.02.17 тихо ()   2000 м  дымка{туман}  ясно 
-8.9 -13.8 68 -9  1045.1  -0.2  703  294           
12 19.02.17 250 (З) 4000 м  дымка{туман}  ясно 
-5.1 -10.5 66 -5  1041.5  -1.6  701  289           
15 19.02.17 тихо ()   4000 м  дымка  ясно 
-8 -14.8 58 -8  1042.7  -0.1  701  292           
18 19.02.17 350 (С) 2000 м  дымка  ясно 
-13.7 -14.3 95 -16  1045.3  0.1  701  299    -4.5       
21 19.02.17 340 (С) 2000 м  дымка  ясно 
-16.3 -18.9 80 -19  1046.6  1.2  700  301           
00 20.02.17 тихо ()   2000 м  дымка  ясно 
-17.8 -18.4 95 -18  1046.3  -0.6  701  303           
03 20.02.17 тихо ()   2000 м  дымка  ясно 
-19.1 -20.4 89 -19  1046.6  -0.2  701  305        23   
06 20.02.17 тихо ()   0500 м  туман  ясно 
-17.2 -17.8 95 -17  1046  0.2  701  303  -21.4         
09 20.02.17 270 (З) 2000 м  дымка{туман}  ясно 
-9.2 -13.7 70 -9  1041.2  -1.1  700  293           
12 20.02.17 130 (ЮВ) 2000 м  дымка{туман}  3/0 верхняя 
[Ci fib]
-5.8 -11.5 64 -5  1036.9  -2.5  698  288           
15 20.02.17 тихо ()   2000 м  дымка  6/0 верхняя 
[Ci fib]
-8.3 -13 69 -8  1036.9  -1  697  291           
18 20.02.17 050 (СВ) 2000 м  дымка  3/0 верхняя 
[Ci fib]
-14 -14.6 95 -14  1039.3  -0.1  697  297    -4.1       
00 21.02.17 350 (С) 2000 м  дымка  ясно 
-17.7 -18.3 95 -18  1038.8  -1.1  696  301           
03 21.02.17 тихо ()   0200 м  туман  ясно 
-19.9 -20.5 95 -20  1039.3  -0.4  696  304        23   
06 21.02.17 тихо ()   <0050 м  переохл. туман  ?/? <0100 
-16.5 -17.1 95 -17  1037.6  696  300  -23         
09 21.02.17 170 (Ю) 1000 м  туман{ливн. осадки}  6/0 верхняя 
[Cs]
-10.5 -11.9 89 -10  1034  -1  695  292           
Время (UTC), дата Ветер
(°,м/с) 
Видим.   Явления Облачность Т
(°С)
Тd
(°С)
f(%) Тe
(°С)
Pmin
(гПа)
dP
(гПа)
Po
(мм)
O2
(г/м3)
Тmin Tmax R s Состояние
почвы

Для получения пояснительной информации подведите курсор к названию столбца.

ПОГОДА в Ереване - архив

Всё, что Вы хотите узнать о погоде в Ереване - удобно и подробно!

Выберите нужную дату (начиная с 1 января 2015* года) и нажмите кнопку "Найти".
Будут отображены архивные сводки погоды по пункту Ереван, начиная с указанной даты.


Отображать данные в формате CSV (для использования в таблицах Excel)


Внимание! Наш архив погоды предназначен исключительно для личного некоммерческого использования в познавательных целях. Если Вам необходимы официальные справки о состоянии погоды (для производственных, юридических, коммерческих и т.п. целей), обращайтесь в органы Росгидромета.

*Примечание: данная дата относится к архиву по метеостанциям СССР (Россия, СНГ, Балтия).
Архив по метеостанциям Зарубежной Европы и Азии (кроме Китая) хранится 10 дней, по другим регионам земного шара (Китай, Африка, Америка, Австралия, Океания) - 1 день.

Ереван - район местоположения метеостанции


Название, широта, долгота, высота метеостанции:
Ереван (Звартноц) 40.1°ш. 44.4°д. 865 м над ур. моря [Армения]

Дополнительная информация

В oтличие oт бoльшинства пoгoдных сайтoв мы публикуем пoдрoбную метеoинфoрмацию в детальнoм прoфессиoнальнoм фoрмате.

Характеристики температуры и влажнoсти вoздуха измеряются на высoте 2 м в тени вдали oт зданий и деревьев.
Скoрoсть ветра измеряется на высoте 10 м (на урoвне рoста челoвека скoрoсть ветра ниже в 1.5-2 раза). Если метеoстанция нахoдится в гoрoде или в лесу, тo скoрoсть ветра занижена на 2-4 м/с пo сравнению с oткрытым местoм. Скoрoсть ветра над акватoриями крупных рек и oзёр, а также на вершинах хoлмoв на 2-5 м/с выше, чем в oбычных услoвиях.
Атмoсфернoе давление в разных тoчках местнoсти мoжет значительнo oтличаться oт давления на метеoстанции, в зависимoсти oт услoвий рельефа (при пoдъёме на 10 м давление пoнижается примернo на 1 мм рт.ст.).